Location: Cheching
(60.0667°N, 164.2167°W)
Time: 12:45:12
(UTC+00:00)

LilacSat-2 - Pass Details

Date: 19 January 2021
Orbit: 512 x 533 km, 97.5° (Epoch: 05 March)

Event Time Altitude Azimuth Distance (km) Brightness Sun altitude
Rises 16:17:27 0° 20° (NNE) 2,683 ? -23.6°
Reaches altitude 10° 16:19:46 10° 32° (NNE) 1,791 ? -23.4°
Maximum altitude 16:23:13 30° 95° (E) 967 ? -22.9°
Drops below altitude 10° 16:26:40 10° 158° (SSE) 1,786 ? -22.5°
Sets 16:28:58 0° 169° (S) 2,674 ? -22.2°
